W7KKE-3 Weather Reports


time (UTC)temp
F
wind
direction
speed
knots
gust
knots
rain 1hr
in
rain 24hr
in
rain mn
in
humidity
%
barometer
mb
20260507041152 56 5 5.2 7.0 0.00 0.00 0.00 82 1018.4
20260507040648 56 326 3.5 7.0 0.00 0.00 0.00 82 1018.4
20260507035649 56 7 4.3 6.1 0.00 0.00 0.00 82 1018.4
20260507035149 56 348 3.5 6.1 0.00 0.00 0.00 82 1018.3
20260507034150 56 330 2.6 7.8 0.00 0.00 0.00 82 1018.3
20260507033648 56 350 2.6 7.8 0.00 0.00 0.00 82 1018.2
20260507033148 56 348 4.3 7.8 0.00 0.00 0.00 82 1018.2
20260507032649 56 312 4.3 7.0 0.00 0.00 0.00 82 1018.2
20260507032150 56 347 3.5 7.0 0.00 0.00 0.00 82 1018.2
20260507031649 56 327 3.5 7.0 0.00 0.00 0.00 82 1018.2
20260507031151 57 319 3.5 4.3 0.00 0.00 0.00 82 1018.1
20260507030148 57 327 0.9 4.3 0.00 0.00 0.00 82 1018.1
20260507025650 57 331 2.6 5.2 0.00 0.00 0.00 82 1018.2
20260507025148 57 337 3.5 5.2 0.00 0.00 0.00 82 1018.2
20260507024648 57 322 3.5 5.2 0.00 0.00 0.00 81 1018.1
20260507024150 57 351 3.5 5.2 0.00 0.00 0.00 81 1018.1
20260507023648 57 333 3.5 5.2 0.00 0.00 0.00 81 1018.0
20260507023148 57 329 0.9 5.2 0.00 0.00 0.00 81 1018.1
20260507022649 57 330 2.6 5.2 0.00 0.00 0.00 81 1018.0
20260507022149 57 343 2.6 4.3 0.00 0.00 0.00 81 1018.0
20260507021648 57 350 3.5 7.0 0.00 0.00 0.00 81 1018.0
20260507021150 57 313 2.6 7.0 0.00 0.00 0.00 81 1018.1
20260507020649 58 341 3.5 7.0 0.00 0.00 0.00 81 1018.1
20260507020148 58 337 4.3 5.2 0.00 0.00 0.00 80 1018.1
20260507015649 58 357 3.5 5.2 0.00 0.00 0.00 80 1018.1
20260507015149 58 338 1.7 5.2 0.00 0.00 0.00 80 1018.1
20260507014648 58 319 2.6 5.2 0.00 0.00 0.00 80 1018.2
20260507014150 58 313 1.7 4.3 0.00 0.00 0.00 80 1018.2
20260507013648 58 306 0.9 4.3 0.00 0.00 0.00 80 1018.2
20260507013149 58 317 2.6 2.6 0.00 0.00 0.00 80 1018.3
20260507012650 58 306 1.7 2.6 0.00 0.00 0.00 80 1018.3
20260507012150 58 298 0.9 4.3 0.00 0.00 0.00 79 1018.3
20260507011150 58 289 0.9 4.3 0.00 0.00 0.00 79 1018.3
20260507010649 58 294 1.7 4.3 0.00 0.00 0.00 79 1018.4
20260507010148 58 326 2.6 4.3 0.00 0.00 0.00 79 1018.4
20260507005649 58 306 3.5 4.3 0.00 0.00 0.00 79 1018.5
20260507005148 58 278 2.6 5.2 0.00 0.00 0.00 79 1018.5
20260507004648 59 323 1.7 5.2 0.00 0.00 0.00 79 1018.4
20260507004150 59 287 1.7 5.2 0.00 0.00 0.00 79 1018.4
20260507003648 59 289 3.5 5.2 0.00 0.00 0.00 79 1018.5
20260507003149 59 299 1.7 5.2 0.00 0.00 0.00 80 1018.5
20260507002149 58 284 3.5 5.2 0.00 0.00 0.00 80 1018.5
20260507001648 58 292 4.3 5.2 0.00 0.00 0.00 80 1018.5
20260507001150 58 308 2.6 5.2 0.00 0.00 0.00 80 1018.6
20260507000149 58 310 3.5 5.2 0.00 0.00 0.00 80 1018.6
20260506235649 58 302 3.5 5.2 0.00 0.00 0.00 80 1018.6
20260506235148 58 303 4.3 6.1 0.00 0.00 0.00 80 1018.6
20260506234648 58 299 3.5 6.1 0.00 0.00 0.00 80 1018.6
20260506234151 58 308 2.6 6.1 0.00 0.00 0.00 79 1018.7
20260506233648 58 289 2.6 6.1 0.00 0.00 0.00 79 1018.7
20260506233149 58 288 4.3 7.0 0.00 0.00 0.00 79 1018.7
20260506232649 58 306 4.3 7.0 0.00 0.00 0.00 80 1018.7
20260506232148 58 301 4.3 7.0 0.00 0.00 0.00 79 1018.7
20260506231649 58 271 3.5 7.0 0.00 0.00 0.00 79 1018.8
20260506231150 58 296 2.6 7.0 0.00 0.00 0.00 79 1018.7
20260506230148 58 287 5.2 7.0 0.00 0.00 0.00 79 1018.8
20260506225649 58 315 3.5 7.0 0.00 0.00 0.00 79 1018.9
20260506225148 58 313 3.5 6.1 0.00 0.00 0.00 79 1018.8
20260506224150 58 306 3.5 6.1 0.00 0.00 0.00 78 1018.9
20260506223648 59 306 4.3 5.2 0.00 0.00 0.00 78 1019.0
20260506223149 59 299 3.5 7.8 0.00 0.00 0.00 78 1019.0
20260506222649 59 295 3.5 7.8 0.00 0.00 0.00 78 1019.1
20260506222148 59 294 4.3 7.8 0.00 0.00 0.00 78 1019.1
20260506221648 59 292 4.3 7.0 0.00 0.00 0.00 78 1019.1
20260506221150 59 288 3.5 7.0 0.00 0.00 0.00 78 1019.1
20260506220648 59 320 2.6 6.1 0.00 0.00 0.00 78 1019.0
20260506215649 59 274 5.2 7.0 0.00 0.00 0.00 78 1019.0
20260506215150 59 296 4.3 7.0 0.00 0.00 0.00 78 1018.9
20260506214649 59 295 3.5 7.8 0.00 0.00 0.00 77 1018.9
20260506214150 60 295 3.5 7.8 0.00 0.00 0.00 78 1018.8
20260506213148 59 295 5.2 7.0 0.00 0.00 0.00 78 1018.8
20260506212650 59 298 5.2 7.0 0.00 0.00 0.00 78 1018.8
20260506212149 59 301 4.3 6.1 0.00 0.00 0.00 78 1018.7
20260506211150 59 310 3.5 7.0 0.00 0.00 0.00 77 1018.8
20260506210648 60 291 3.5 7.0 0.00 0.00 0.00 77 1018.8
20260506210148 60 302 3.5 7.0 0.00 0.00 0.00 77 1018.8
20260506205148 59 274 4.3 5.2 0.00 0.00 0.00 77 1018.8
20260506204648 59 295 3.5 5.2 0.00 0.00 0.00 77 1018.8
20260506204150 59 294 2.6 5.2 0.00 0.00 0.00 76 1018.7
20260506203648 60 282 3.5 5.2 0.00 0.00 0.00 77 1018.6
20260506203149 60 288 4.3 6.1 0.00 0.00 0.00 78 1018.6
20260506202649 59 296 4.3 6.1 0.00 0.00 0.00 77 1018.6
20260506202150 59 298 4.3 6.1 0.00 0.00 0.00 77 1018.5
20260506201648 59 302 4.3 6.1 0.00 0.00 0.00 77 1018.6
20260506201150 59 301 3.5 6.1 0.00 0.00 0.00 78 1018.6
20260506200648 59 289 4.3 5.2 0.00 0.00 0.00 77 1018.6
20260506200148 59 284 2.6 4.3 0.00 0.00 0.00 78 1018.6
20260506195649 59 267 3.5 3.5 0.00 0.00 0.00 78 1018.6
20260506195148 59 289 2.6 3.5 0.00 0.00 0.00 78 1018.6
20260506194648 58 299 0.9 3.5 0.00 0.00 0.00 78 1018.7
20260506194150 58 287 2.6 3.5 0.00 0.00 0.00 78 1018.6
20260506193648 58 294 0.9 3.5 0.00 0.00 0.00 78 1018.7
20260506193149 58 287 1.7 5.2 0.00 0.00 0.00 79 1018.6
20260506192649 58 278 2.6 5.2 0.00 0.00 0.00 79 1018.6
20260506192148 58 296 3.5 5.2 0.00 0.00 0.00 78 1018.6
20260506191150 58 315 2.6 6.1 0.00 0.00 0.00 79 1018.5
20260506190649 58 294 1.7 6.1 0.00 0.00 0.00 79 1018.5
20260506190148 58 294 4.3 7.0 0.00 0.00 0.00 79 1018.6
20260506185649 58 306 3.5 7.0 0.00 0.00 0.00 79 1018.6
20260506185148 58 296 4.3 7.0 0.00 0.00 0.00 79 1018.6
20260506184648 58 274 4.3 7.0 0.00 0.00 0.00 79 1018.5
20260506184150 58 312 3.5 5.2 0.00 0.00 0.00 79 1018.5
20260506183648 58 309 2.6 5.2 0.00 0.00 0.00 79 1018.5
20260506183148 58 301 3.5 5.2 0.00 0.00 0.00 78 1018.4
20260506182649 58 308 4.3 4.3 0.00 0.00 0.00 78 1018.4
20260506182148 58 291 2.6 4.3 0.00 0.00 0.00 78 1018.4
20260506181648 58 250 2.6 4.3 0.00 0.00 0.00 78 1018.3
20260506181150 58 278 2.6 3.5 0.00 0.00 0.00 78 1018.2
20260506180648 58 275 2.6 3.5 0.00 0.00 0.00 78 1018.2
20260506180148 58 224 1.7 3.5 0.00 0.00 0.00 78 1018.2
20260506175650 58 219 0.9 4.3 0.00 0.00 0.00 77 1018.1
20260506175149 58 191 0.9 4.3 0.00 0.00 0.00 78 1018.0
20260506174648 58 252 0.9 4.3 0.00 0.00 0.00 79 1018.0
20260506174150 58 163 2.6 4.3 0.00 0.00 0.00 79 1018.0
20260506173649 58 238 1.7 4.3 0.00 0.00 0.00 78 1017.9
20260506173148 58 194 0.9 3.5 0.00 0.00 0.00 78 1017.9
20260506172649 58 249 1.7 3.5 0.00 0.00 0.00 79 1017.9
20260506172148 58 246 2.6 5.2 0.00 0.00 0.00 79 1017.9
20260506171648 58 212 2.6 5.2 0.00 0.00 0.00 79 1017.8
20260506171150 57 197 0.9 5.2 0.00 0.00 0.00 79 1017.7
20260506170649 58 260 0.9 4.3 0.00 0.00 0.00 79 1017.8
20260506165649 57 281 2.6 3.5 0.00 0.00 0.00 80 1017.7
20260506165148 57 228 0.0 3.5 0.00 0.00 0.00 80 1017.6
20260506164648 57 246 0.0 2.6 0.00 0.00 0.00 80 1017.6
20260506164150 57 267 0.9 2.6 0.00 0.00 0.00 80 1017.7
20260506163648 57 235 1.7 1.7 0.00 0.00 0.00 80 1017.7
20260506163148 57 249 0.0 3.5 0.00 0.00 0.00 80 1017.6
20260506162148 57 296 0.0 3.5 0.00 0.00 0.00 81 1017.6
20260506161648 57 273 1.7 3.5 0.00 0.00 0.00 81 1017.6
20260506161150 57 266 0.9 3.5 0.00 0.00 0.00 81 1017.5
20260506160648 56 201 1.7 3.5 0.00 0.00 0.00 81 1017.6
20260506155650 56 285 0.9 3.5 0.00 0.00 0.00 81 1017.5
20260506155148 56 261 0.9 2.6 0.00 0.00 0.00 81 1017.5
20260506154649 56 289 0.0 2.6 0.00 0.00 0.00 82 1017.4
20260506154151 56 268 0.9 2.6 0.00 0.00 0.00 82 1017.4
20260506153649 56 299 0.0 2.6 0.00 0.00 0.00 82 1017.3
20260506153148 56 284 0.0 2.6 0.00 0.00 0.00 82 1017.2
20260506152649 56 277 1.7 2.6 0.00 0.00 0.00 82 1017.2
20260506152148 56 0 0.9 0.9 0.00 0.00 0.00 82 1017.1
20260506151648 56 0 0.0 0.0 0.00 0.00 0.00 82 1016.9
20260506151150 56 0 0.0 2.6 0.00 0.00 0.00 82 1016.8
20260506150649 56 0 0.0 2.6 0.00 0.00 0.00 82 1016.8
20260506150148 56 278 0.0 2.6 0.00 0.00 0.00 82 1016.8
20260506145649 55 130 0.0 1.7 0.00 0.00 0.00 83 1017.0
20260506145148 55 142 0.9 0.9 0.00 0.00 0.00 83 1016.7
20260506144648 55 0 0.0 0.9 0.00 0.00 0.00 83 1016.6
20260506144151 55 0 0.0 0.9 0.00 0.00 0.00 83 1016.6
20260506143648 55 91 0.0 0.9 0.00 0.00 0.00 83 1016.9
20260506143148 55 78 0.0 0.9 0.00 0.00 0.00 83 1016.9
20260506142649 55 280 0.0 2.6 0.00 0.00 0.00 83 1016.9
20260506142148 55 347 0.0 2.6 0.00 0.00 0.00 83 1017.1
20260506141649 55 319 0.0 2.6 0.00 0.00 0.00 83 1017.0
20260506141150 55 324 0.0 5.2 0.00 0.00 0.00 83 1017.0
20260506140648 55 333 1.7 5.2 0.00 0.00 0.00 83 1016.9
20260506140148 55 334 0.9 5.2 0.00 0.00 0.00 83 1016.9
20260506135649 55 324 3.5 4.3 0.00 0.00 0.00 83 1017.0
20260506135148 55 306 2.6 3.5 0.00 0.00 0.00 83 1017.0
20260506134648 55 295 0.0 1.7 0.00 0.00 0.00 83 1016.8
20260506134150 55 0 0.0 0.0 0.00 0.00 0.00 83 1016.6
20260506133648 55 0 0.0 0.0 0.00 0.00 0.00 83 1016.5
20260506133148 55 0 0.0 0.0 0.00 0.00 0.00 83 1016.4
20260506132649 55 0 0.0 0.0 0.00 0.00 0.00 83 1016.4
20260506132148 55 0 0.0 3.5 0.00 0.00 0.00 83 1016.5
20260506131648 55 0 0.0 3.5 0.00 0.00 0.00 82 1016.4
20260506131152 55 226 0.0 3.5 0.00 0.00 0.00 82 1016.5
20260506130649 55 287 1.7 1.7 0.00 0.00 0.00 83 1016.4
20260506130148 55 0 0.0 0.0 0.00 0.00 0.00 83 1016.5
20260506125649 55 0 0.0 0.0 0.00 0.00 0.00 83 1016.4
20260506124648 55 0 0.0 0.0 0.00 0.00 0.00 83 1016.2
20260506124150 55 0 0.0 0.0 0.00 0.00 0.00 82 1016.2
20260506123648 55 0 0.0 0.0 0.00 0.00 0.00 83 1016.1
20260506123148 55 0 0.0 0.0 0.00 0.00 0.00 83 1016.0
20260506122649 55 0 0.0 0.0 0.00 0.00 0.00 83 1016.1
20260506122148 55 0 0.0 4.3 0.00 0.00 0.00 82 1016.0
20260506121648 55 0 0.0 4.3 0.00 0.00 0.00 82 1015.9
20260506121150 55 207 0.0 4.3 0.00 0.00 0.00 82 1015.8
20260506120648 55 0 0.9 0.9 0.00 0.00 0.00 82 1015.8
20260506120148 55 0 0.0 0.0 0.00 0.00 0.00 82 1015.9
20260506115649 55 0 0.0 0.0 0.00 0.00 0.00 82 1016.0
20260506115148 55 0 0.0 2.6 0.00 0.00 0.00 82 1015.9
20260506114648 55 116 0.0 2.6 0.00 0.00 0.00 82 1015.9
20260506114150 55 238 0.0 2.6 0.00 0.00 0.00 82 1015.8
20260506113648 55 0 0.9 0.9 0.00 0.00 0.00 82 1015.8
20260506113148 55 0 0.0 0.0 0.00 0.00 0.00 82 1015.9
20260506112649 55 0 0.0 0.0 0.00 0.00 0.00 82 1015.9
20260506112148 55 0 0.0 0.0 0.00 0.00 0.00 82 1015.9
20260506111648 55 0 0.0 0.0 0.00 0.00 0.00 82 1015.8
20260506111150 55 0 0.0 0.0 0.00 0.00 0.00 82 1015.8
20260506110648 55 0 0.0 0.0 0.00 0.00 0.00 82 1015.9
20260506105649 55 0 0.0 6.1 0.00 0.00 0.00 82 1015.8
20260506105148 55 288 0.0 6.1 0.00 0.00 0.00 82 1015.8
20260506104648 55 299 2.6 6.1 0.00 0.00 0.00 82 1015.8
20260506104150 55 275 1.7 3.5 0.00 0.00 0.00 82 1015.7
20260506103648 55 289 1.7 2.6 0.00 0.00 0.00 82 1015.7
20260506103148 55 299 0.9 2.6 0.00 0.00 0.00 82 1015.6
20260506102649 55 333 0.9 2.6 0.00 0.00 0.00 82 1015.6
20260506102148 55 285 1.7 3.5 0.00 0.00 0.00 83 1015.5
20260506101648 55 277 0.9 3.5 0.00 0.00 0.00 83 1015.4
20260506101150 55 313 0.9 3.5 0.00 0.00 0.00 83 1015.4
20260506100648 55 320 1.7 7.0 0.00 0.00 0.00 83 1015.3
20260506100148 55 316 2.6 7.0 0.00 0.00 0.00 83 1015.3
20260506095649 55 299 3.5 7.0 0.00 0.00 0.00 83 1015.4
20260506095148 55 303 2.6 5.2 0.00 0.00 0.00 83 1015.3
20260506094648 55 278 1.7 6.1 0.00 0.00 0.00 83 1015.3
20260506094150 55 302 2.6 6.1 0.00 0.00 0.00 83 1015.2
20260506093648 55 319 3.5 6.1 0.00 0.00 0.00 83 1015.1
20260506093148 55 320 0.9 5.2 0.00 0.00 0.00 83 1015.1
20260506092649 56 296 1.7 5.2 0.00 0.00 0.00 83 1015.1
20260506092148 55 301 1.7 4.3 0.00 0.00 0.00 83 1015.1
20260506091648 56 0 0.0 0.0 0.00 0.00 0.00 83 1015.0
20260506091149 56 0 0.0 0.0 0.00 0.00 0.00 83 1015.0
20260506090647 55 0 0.0 0.0 0.00 0.00 0.00 83 1015.0
20260506085649 55 0 0.0 0.0 0.00 0.01 0.00 83 1014.9
20260506084648 55 0 0.0 0.0 0.00 0.01 0.00 83 1014.9
20260506084150 56 0 0.0 0.0 0.00 0.01 0.00 83 1014.9
20260506083648 55 0 0.0 0.0 0.00 0.01 0.00 83 1014.9
20260506083147 56 0 0.0 0.0 0.00 0.01 0.00 83 1014.9
20260506082650 56 0 0.0 0.0 0.00 0.01 0.00 83 1014.9
20260506082147 56 0 0.0 0.0 0.00 0.01 0.00 83 1014.8
20260506081648 56 0 0.0 0.0 0.00 0.01 0.00 83 1014.8
20260506081151 56 0 0.0 0.0 0.00 0.01 0.00 83 1014.7
20260506080647 56 0 0.0 0.0 0.00 0.01 0.00 83 1014.7
20260506073147 56 0 0.0 0.0 0.00 0.01 0.00 83 1014.3
20260506072649 56 0 0.0 0.0 0.00 0.01 0.00 82 1014.2
20260506072147 56 0 0.0 0.0 0.00 0.01 0.00 83 1014.2
20260506071647 56 0 0.0 0.0 0.00 0.01 0.00 83 1014.1
20260506071150 56 0 0.0 0.0 0.00 0.01 0.00 83 1014.1
20260506070647 56 0 0.0 0.0 0.00 0.01 0.00 82 1014.0
20260506062147 56 0 0.0 0.0 0.00 0.01 0.01 82 1013.9
20260506061647 56 0 0.0 0.0 0.00 0.01 0.01 82 1013.9
20260506061149 56 0 0.0 0.0 0.00 0.01 0.01 82 1013.9
20260506060147 56 0 0.0 0.0 0.00 0.02 0.01 82 1013.8
20260506051149 56 0 0.0 0.0 0.00 0.02 0.01 82 1013.9
20260506050647 56 0 0.0 0.0 0.00 0.02 0.01 82 1014.0
20260506050147 56 0 0.0 0.0 0.00 0.02 0.01 82 1013.9
20260506044647 57 0 0.0 0.0 0.00 0.02 0.01 82 1013.8
20260506044149 57 0 0.0 0.0 0.00 0.02 0.01 82 1013.6
20260506043647 57 0 0.0 0.0 0.00 0.02 0.01 82 1013.7
20260506043147 57 0 0.0 0.0 0.00 0.02 0.01 82 1013.6
20260506042648 57 0 0.0 0.0 0.00 0.02 0.01 82 1013.5
20260506042147 57 0 0.0 0.0 0.00 0.02 0.01 82 1013.5
20260506041647 57 0 0.0 0.0 0.00 0.02 0.01 82 1013.6